TimePST,TemperatureF,Dew PointF,Humidity,Sea Level PressureIn,VisibilityMPH,Wind Direction,Wind SpeedMPH,Gust SpeedMPH,PrecipitationIn,Events,Conditions,WindDirDegrees,DateUTC
12:53 AM,42.1,36.0,79,29.79,10.0,ESE,13.8,-,N/A,,Partly Cloudy,110,2012-12-21 08:53:00
1:53 AM,41.0,35.1,79,29.78,10.0,ESE,13.8,19.6,N/A,,Clear,110,2012-12-21 09:53:00
2:53 AM,39.9,35.1,83,29.78,10.0,East,9.2,17.3,N/A,,Partly Cloudy,80,2012-12-21 10:53:00
3:53 AM,39.9,34.0,79,29.78,10.0,ENE,9.2,-,N/A,,Clear,70,2012-12-21 11:53:00
4:53 AM,39.9,34.0,79,29.75,10.0,East,10.4,18.4,N/A,,Clear,80,2012-12-21 12:53:00
5:53 AM,39.0,33.1,79,29.75,10.0,ENE,6.9,-,N/A,,Clear,60,2012-12-21 13:53:00
6:53 AM,39.0,32.0,76,29.73,10.0,ENE,4.6,-,N/A,,Clear,60,2012-12-21 14:53:00
7:53 AM,39.0,32.0,76,29.74,10.0,NE,4.6,-,N/A,,Overcast,50,2012-12-21 15:53:00
8:53 AM,39.0,32.0,76,29.73,10.0,East,8.1,-,N/A,,Scattered Clouds,80,2012-12-21 16:53:00
9:53 AM,41.0,32.0,70,29.73,10.0,ESE,12.7,-,N/A,,Overcast,110,2012-12-21 17:53:00
10:53 AM,42.1,32.0,67,29.72,10.0,ESE,13.8,-,N/A,,Mostly Cloudy,110,2012-12-21 18:53:00
11:39 AM,42.8,33.8,70,29.72,10.0,ESE,17.3,23.0,N/A,,Mostly Cloudy,110,2012-12-21 19:39:00
11:49 AM,44.6,35.6,71,29.72,10.0,ESE,18.4,24.2,N/A,,Mostly Cloudy,110,2012-12-21 19:49:00
11:53 AM,44.1,34.0,68,29.72,10.0,ESE,19.6,27.6,N/A,,Mostly Cloudy,120,2012-12-21 19:53:00
12:17 PM,42.8,35.6,76,29.71,10.0,ESE,15.0,-,N/A,,Mostly Cloudy,110,2012-12-21 20:17:00
12:53 PM,44.1,37.0,76,29.72,10.0,SE,16.1,26.5,N/A,,Overcast,140,2012-12-21 20:53:00
1:53 PM,45.0,37.9,76,29.72,10.0,SE,16.1,26.5,N/A,,Mostly Cloudy,130,2012-12-21 21:53:00
2:03 PM,44.6,37.4,76,29.72,10.0,SE,18.4,23.0,N/A,,Mostly Cloudy,130,2012-12-21 22:03:00
2:45 PM,44.6,37.4,76,29.72,10.0,SE,17.3,26.5,N/A,,Mostly Cloudy,130,2012-12-21 22:45:00
2:53 PM,45.0,37.0,74,29.73,10.0,SE,16.1,26.5,N/A,,Scattered Clouds,130,2012-12-21 22:53:00
3:09 PM,46.4,37.4,71,29.72,10.0,SE,15.0,20.7,N/A,,Mostly Cloudy,140,2012-12-21 23:09:00
3:53 PM,44.1,37.0,76,29.73,10.0,East,9.2,-,N/A,,Mostly Cloudy,90,2012-12-21 23:53:00
4:53 PM,44.1,37.0,76,29.73,10.0,ENE,8.1,-,N/A,,Overcast,70,2012-12-22 00:53:00
5:53 PM,44.1,37.0,76,29.72,10.0,East,6.9,17.3,N/A,,Overcast,90,2012-12-22 01:53:00
6:41 PM,42.8,35.6,76,29.72,10.0,ENE,5.8,-,N/A,,Scattered Clouds,70,2012-12-22 02:41:00
6:53 PM,42.1,36.0,79,29.72,10.0,NE,4.6,-,N/A,,Clear,50,2012-12-22 02:53:00
7:53 PM,39.9,34.0,79,29.71,10.0,North,5.8,-,N/A,,Clear,10,2012-12-22 03:53:00
8:53 PM,39.0,34.0,82,29.71,10.0,North,4.6,-,N/A,,Partly Cloudy,350,2012-12-22 04:53:00
9:53 PM,37.9,35.1,89,29.70,10.0,Calm,Calm,-,N/A,,Mostly Cloudy,0,2012-12-22 05:53:00
10:53 PM,39.0,34.0,82,29.70,10.0,North,3.5,-,N/A,,Mostly Cloudy,350,2012-12-22 06:53:00
11:53 PM,39.9,36.0,86,29.69,10.0,Calm,Calm,-,N/A,,Overcast,0,2012-12-22 07:53:00